User: anonymous
Location: Zlin
(49.2330°N, 17.6670°E)
Time: 16:06:00
(UTC+02:00)
Language:

ISS - Orbit

View from above orbital plane
View from above orbital plane
View from above satellite
View from above satellite

Ground track
Ground track

The orbit data is extracted from the following two-line orbital elements,

1 25544U 98067A   14264.21295913  .00019991  00000-0  35078-3 0  1233
2 25544 051.6470 343.6375 0002364 119.3928 334.3425 15.50528249906228
Epoch (UTC): 21 September 2014 05:06:39
Eccentricity: 0.0002364
inclination: 51.6470°
perigee height: 413 km
apogee height: 417 km
right ascension of ascending node: 343.6375°
argument of perigee: 119.3928°
revolutions per day: 15.50528249
mean anomaly at epoch: 334.3425°
orbit number at epoch: 90622

The dashed part of the orbit path shows where the satellite is in the earth's shadow,  

DLR